CZ-6A DEB, 54300

Orbit data source: Space-Track

CZ-6A DEB, 54300 is space debris in SSO originally from a launch on Fri, 11 Nov 2022 UTC launched from the Taiyaun Space Center, China (TSC). Debris objects in space refer to the collection of defunct objects orbiting the Earth. Examples of debris include non-operational satellites, rocket bodies, and fragments generated from explosions, collisions, or faulty payload assembly.

Loading next visibility...
Identifier
54300, 2022-151AT
Orbit
SSO
Country
Flag of CNCN / PRC
Related business
Manufacturer
SAST
Mission
Spacecraft
Bus & Motor
Unknown
Mass
Unknown
Launch date (UTC)
2022-11-11 (3 years ago)
Launch vehicle
Unknown
Launch site
Taiyaun Space Center, China (TSC)
Object type
Payload
Rocket body
Debris
Shape & HBR
Unknown shape, 0.2 m
Radar Cross Section
Small (<0.1 m²)

Expand to show TLE details & history
Last TLE update: 7 hours ago

TLE from 7 hours ago
0 CZ-6A DEB
1 54300U 22151AT  25352.94081294  .00001051  00000-0  60409-3 0  9996
2 54300  98.8970   0.0567 0057853 102.8792 257.8850 14.10628761158948
Epoch: 2025-12-18T22:34Z
TLE epoch observation values (Epoch: 2025-12-18T22:34:46.238Z)
Latitude
-0.00003°
Longitude
-66.42505°
Altitude
869.135 km
Speed
7.413 km/s
True Right ascension
00h 00m 13s
True Declination
0° 00' 00"
Sunlit
Object was in daylight at epoch
Visualization orbit readout
Latitude
Unknown
Longitude
Unknown
Altitude
Unknown
Speed
Unknown
Apparent Right ascension
Unknown
Apparent Declination
Unknown
Sunlit
N/A
Visualization observer readout
Local Sidereal Time
04:10:42
Azimuth
Unknown
Elevation
Unknown
Doppler factor
Unknown
Orbital elements
Apogee altitude
896.243 km
Perigee altitude
812.559 km
Semi-major axis
7,232.538 km
Eccentricity
0.00579
Inclination
98.897°
RAAN
0.0567°
Arg. of periapsis
102.8792°
True anomaly
257.23781°
Mean anomaly
257.885°
Eccentric anomaly
257.56131°
Mean motion
3.52864 °/min
Orbital period
102.02 mins
BSTAR
0.00060409
Loading maneuver chart data...
Computing Atmospheric mass density...
Loading historical data...
Loading historical data...
Loading historical data...
Loading historical data...
Loading historical data...
Loading historical data...
Loading historical data...

Documentation

Showing up to 5 results
|